User: anonymous   Login
Location: Unspecified
(0.0000°N, 0.0000°E)
Time: 10:07:40
(UTC+02:00)
Language:

Iridium 15 - Orbit

View from above orbital plane
View from above orbital plane
View from above satellite
View from above satellite

Ground track
Ground track

The orbit data is extracted from the following two-line orbital elements,

1 24869U 97034A   16239.30023449  .00000186  00000-0  59449-4 0  9998
2 24869  86.4000 145.4018 0002032  86.7925 273.3503 14.34216923  1645
Epoch (UTC): 26 August 2016 07:12:20
Eccentricity: 0.0002032
inclination: 86.4000°
perigee height: 776 km
apogee height: 779 km
right ascension of ascending node: 145.4018°
argument of perigee: 86.7925°
revolutions per day: 14.34216923
mean anomaly at epoch: 273.3503°
orbit number at epoch: 164

The dashed part of the orbit path shows where the satellite is in the earth's shadow,  

DLR